Weather History for KHWY - October, 2011

Change the Weather History Date:

Monday, October 3, 2011

  Actual Average (KHEF) Record (KHEF)
Temperature  
Mean Temperature 48 °F -  
Max Temperature 53 °F 69 °F 87 °F (2002)
Min Temperature 42 °F 46 °F 30 °F (2003)
Degree Days  
Heating Degree Days 18    
Moisture  
Dew Point 49 °F    
Average Humidity 99    
Maximum Humidity 100    
Minimum Humidity 94    
Precipitation  
Precipitation 0.02 in - - ()
Sea Level Pressure  
Sea Level Pressure 30.01 in    
Wind  
Wind Speed 1 mph (WSW)    
Max Wind Speed 6 mph    
Max Gust Speed -    
Visibility 8 miles    
Events Fog , Rain    
Averages and records for this station are not official NWS values.
T = Trace of Precipitation, MM = Missing Value Source: NWS Daily Summary

Daily Weather History Graph

Daily Weather History Graph

Search for Another Location

Airport or City:

Trip Planner

Search our weather history database for the weather conditions in past years. The results will help you decide how hot, cold, wet, or windy it might be!

Date:

Astronomy

Oct. 03, 2011 Rise Set
Actual Time 7:08 AM EDT 6:50 PM EDT
Civil Twilight 6:41 AM EDT 7:17 PM EDT
Nautical Twilight 6:11 AM EDT 7:48 PM EDT
Astronomical Twilight 5:40 AM EDT 8:19 PM EDT
Moon 2:00 PM EDT (10/3) 11:55 PM EDT (10/3)
Length of Visible Light 12h 35m
Length of Day
11h 42m
Waxing Crescent, 45% of the Moon is Illuminated
Oct 3
Waxing Crescent
Oct 3
First Quarter
Oct 11
Full
Oct 19
Last Quarter
Oct 26
New

Hourly Weather History & Observations

Time (EDT) Temp. Dew Point Humidity Pressure Visibility Wind Dir Wind Speed Gust Speed Precip Events Conditions
12:15 AM 46.4 °F 46.4 °F 100% 29.95 in 10.0 mi Calm Calm - N/A   Mostly Cloudy
12:35 AM 48.2 °F 48.2 °F 100% 29.95 in 10.0 mi Calm Calm - N/A   Overcast
12:55 AM 48.2 °F 48.2 °F 100% 29.95 in 10.0 mi Calm Calm - N/A   Overcast
1:15 AM 48.2 °F 48.2 °F 100% 29.95 in 10.0 mi Calm Calm - N/A   Overcast
1:35 AM 48.2 °F 48.2 °F 100% 29.95 in 10.0 mi Calm Calm - N/A   Overcast
1:55 AM 50.0 °F 50.0 °F 100% 29.95 in 10.0 mi Calm Calm - N/A Rain Light Rain
2:15 AM 50.0 °F 50.0 °F 100% 29.95 in 10.0 mi Calm Calm - N/A Rain Rain
2:35 AM 50.0 °F 50.0 °F 100% 29.94 in 10.0 mi Calm Calm - N/A Rain Light Rain
2:55 AM 50.0 °F 50.0 °F 100% 29.94 in 10.0 mi Calm Calm - N/A   Drizzle
3:15 AM 50.0 °F 50.0 °F 100% 29.93 in 10.0 mi Calm Calm - N/A   Drizzle
3:55 AM 50.0 °F 50.0 °F 100% 29.94 in 10.0 mi Calm Calm - N/A   Overcast
4:15 AM 48.2 °F 48.2 °F 100% 29.95 in 10.0 mi Calm Calm - N/A   Overcast
4:35 AM 46.4 °F 46.4 °F 100% 29.95 in 10.0 mi Calm Calm - N/A   Mostly Cloudy
4:55 AM 46.4 °F 46.4 °F 100% 29.95 in 7.0 mi Calm Calm - N/A   Scattered Clouds
5:15 AM 44.6 °F 44.6 °F 100% 29.95 in 1.0 mi Calm Calm - N/A   Mist
5:35 AM 44.6 °F 44.6 °F 100% 29.96 in 0.5 mi Calm Calm - N/A Fog Fog
5:55 AM 42.8 °F 42.8 °F 100% 29.97 in 0.5 mi Calm Calm - N/A Fog Fog
6:15 AM 44.6 °F 44.6 °F 100% 29.97 in 0.2 mi Calm Calm - N/A Fog Fog
6:35 AM 44.6 °F 44.6 °F 100% 29.98 in 0.8 mi Calm Calm - N/A   Mostly Cloudy
6:55 AM 42.8 °F 42.8 °F 100% 29.98 in 0.2 mi Calm Calm - N/A Fog Fog
7:15 AM 44.6 °F 44.6 °F 100% 29.99 in 1.0 mi Calm Calm - N/A   Mostly Cloudy
7:35 AM 42.8 °F 42.8 °F 100% 30.00 in 1.5 mi Calm Calm - N/A   Mist
7:55 AM 44.6 °F 44.6 °F 100% 30.00 in 5.0 mi Calm Calm - N/A   Clear
8:15 AM 46.4 °F 46.4 °F 100% 30.01 in 10.0 mi Calm Calm - N/A   Scattered Clouds
8:35 AM 50.0 °F 50.0 °F 100% 30.01 in 10.0 mi Calm Calm - N/A   Overcast
8:55 AM 48.2 °F 48.2 °F 100% 30.02 in 10.0 mi NW 5.8 mph - N/A Rain Rain
9:15 AM 48.2 °F 48.2 °F 100% 30.03 in 10.0 mi WNW 4.6 mph - N/A   Drizzle
9:35 AM 48.2 °F 48.2 °F 100% 30.04 in 10.0 mi West 3.5 mph - N/A Rain Light Rain
9:55 AM 48.2 °F 48.2 °F 100% 30.04 in 10.0 mi Calm Calm - N/A Rain Rain
10:15 AM 48.2 °F 48.2 °F 100% 30.05 in 10.0 mi Calm Calm - N/A Rain Light Rain
10:35 AM 50.0 °F 50.0 °F 100% 30.05 in 10.0 mi West 3.5 mph - 0.01 in Rain Light Rain
10:55 AM 50.0 °F 50.0 °F 100% 30.05 in 10.0 mi Calm Calm - 0.01 in Rain Light Rain
11:15 AM 50.0 °F 48.2 °F 94% 30.05 in 10.0 mi WSW 3.5 mph - 0.01 in Rain Light Rain
11:35 AM 50.0 °F 50.0 °F 100% 30.05 in 10.0 mi Calm Calm - 0.01 in Rain Light Rain
11:55 AM 50.0 °F 50.0 °F 100% 30.06 in 10.0 mi WSW 3.5 mph - 0.01 in Rain Light Rain
12:15 PM 50.0 °F 50.0 °F 100% 30.06 in 10.0 mi Calm Calm - N/A   Drizzle
12:35 PM 51.8 °F 50.0 °F 94% 30.06 in 10.0 mi SW 3.5 mph - N/A   Light Drizzle
12:55 PM 51.8 °F 50.0 °F 94% 30.05 in 10.0 mi WSW 3.5 mph - N/A   Light Drizzle
1:15 PM 51.8 °F 50.0 °F 94% 30.05 in 10.0 mi SW 5.8 mph - N/A   Overcast
1:35 PM 51.8 °F 51.8 °F 100% 30.05 in 10.0 mi WSW 3.5 mph - N/A   Overcast
2:15 PM 51.8 °F 50.0 °F 94% 30.05 in 10.0 mi Calm Calm - N/A   Overcast
2:35 PM 51.8 °F 50.0 °F 94% 30.05 in 10.0 mi WSW 3.5 mph - N/A   Overcast
2:55 PM 51.8 °F 51.8 °F 100% 30.05 in 10.0 mi West 4.6 mph - N/A   Overcast
3:15 PM 51.8 °F 51.8 °F 100% 30.05 in 10.0 mi West 4.6 mph - N/A   Overcast
3:35 PM 53.6 °F 51.8 °F 94% 30.05 in 10.0 mi WSW 3.5 mph - N/A   Overcast
4:15 PM 53.6 °F 51.8 °F 94% 30.06 in 10.0 mi SW 4.6 mph - N/A   Overcast
4:35 PM 53.6 °F 51.8 °F 94% 30.06 in 10.0 mi Calm Calm - N/A   Overcast
4:55 PM 53.6 °F 51.8 °F 94% 30.06 in 10.0 mi Calm Calm - N/A   Overcast
5:15 PM 53.6 °F 51.8 °F 94% 30.06 in 10.0 mi Calm Calm - N/A   Light Drizzle
5:35 PM 53.6 °F 51.8 °F 94% 30.06 in 10.0 mi Calm Calm - N/A Rain Light Rain
6:15 PM 51.8 °F 51.8 °F 100% 30.07 in 10.0 mi Calm Calm - N/A Rain Light Rain
6:35 PM 51.8 °F 51.8 °F 100% 30.07 in 10.0 mi Calm Calm - N/A   Overcast
6:55 PM 51.8 °F 51.8 °F 100% 30.07 in 10.0 mi Calm Calm - N/A   Overcast
7:15 PM 51.8 °F 51.8 °F 100% 30.08 in 10.0 mi Calm Calm - N/A   Overcast
7:35 PM 51.8 °F 51.8 °F 100% 30.08 in 10.0 mi Calm Calm - N/A   Overcast
7:55 PM 51.8 °F 51.8 °F 100% 30.08 in 10.0 mi Calm Calm - N/A   Overcast
8:35 PM 51.8 °F 51.8 °F 100% 30.10 in 10.0 mi Calm Calm - N/A   Overcast
8:55 PM 51.8 °F 51.8 °F 100% 30.10 in 10.0 mi Calm Calm - N/A   Overcast
9:35 PM 51.8 °F 51.8 °F 100% 30.10 in 10.0 mi Calm Calm - N/A   Overcast
9:55 PM 51.8 °F 51.8 °F 100% 30.11 in 10.0 mi Calm Calm - N/A   Overcast
10:15 PM 51.8 °F 51.8 °F 100% 30.11 in 10.0 mi Calm Calm - N/A   Overcast
10:35 PM 51.8 °F 51.8 °F 100% 30.11 in 10.0 mi Calm Calm - N/A   Overcast
10:55 PM 51.8 °F 51.8 °F 100% 30.11 in 10.0 mi Calm Calm - N/A   Overcast
11:15 PM 51.8 °F 51.8 °F 100% 30.11 in 10.0 mi Calm Calm - N/A   Overcast
11:35 PM 51.8 °F 51.8 °F 100% 30.11 in 10.0 mi Calm Calm - N/A   Overcast
11:55 PM 51.8 °F 51.8 °F 100% 30.10 in 10.0 mi Calm Calm - N/A   Overcast